This is the latest recevied weather packets stored in our database for station/object AD7ZD. If no packets are shown the sender has not sent any weather packets the latest 10 day(s).
| Time | Temp. | Humidity | Pressure | Rain* | Wind** | Luminosity | Snow |
|---|---|---|---|---|---|---|---|
| 1777392139 | 10° C | 50% | 1017.8 hPa | 0 mm | - | 240 W/m² | - |
| 1777391835 | 9.44° C | 51% | 1017.4 hPa | 0 mm | - | 366 W/m² | - |
| 1777391530 | 9.44° C | 54% | 1017.7 hPa | 0 mm | - | 358 W/m² | - |
| 1777391227 | 9.44° C | 52% | 1017.7 hPa | 0 mm | - | 309 W/m² | - |
| 1777390923 | 9.44° C | 54% | 1017.5 hPa | 0 mm | - | 240 W/m² | - |
| 1777390619 | 8.33° C | 56% | 1017.7 hPa | 0 mm | - | 300 W/m² | - |
| 1777390316 | 7.78° C | 56% | 1017.5 hPa | 0 mm | - | 279 W/m² | - |
| 1777390012 | 7.22° C | 57% | 1017.4 hPa | 0 mm | - | 259 W/m² | - |
| 1777389709 | 7.22° C | 59% | 1017.4 hPa | 0 mm | - | 243 W/m² | - |
| 1777389405 | 6.67° C | 59% | 1017.4 hPa | 0 mm | - | 242 W/m² | - |
| 1777389103 | 6.11° C | 62% | 1017.2 hPa | 0 mm | - | 108 W/m² | - |
| 1777388801 | 6.11° C | 62% | 1017.2 hPa | 0 mm | - | 100 W/m² | - |
| 1777388498 | 5.56° C | 62% | 1017.4 hPa | 0 mm | - | 94 W/m² | - |
| 1777388192 | 5.56° C | 61% | 1017.2 hPa | 0 mm | - | 141 W/m² | - |
| 1777387888 | 5.56° C | 60% | 1017 hPa | 0 mm | - | 127 W/m² | - |
| 1777387585 | 5° C | 61% | 1017 hPa | 0 mm | - | 146 W/m² | - |
| 1777387281 | 5° C | 62% | 1017 hPa | 0 mm | - | 127 W/m² | - |
| 1777386975 | 5° C | 63% | 1016.8 hPa | 0 mm | - | 106 W/m² | - |
| 1777386673 | 5° C | 62% | 1016.8 hPa | 0 mm | - | 91 W/m² | - |
| 1777386370 | 5° C | 62% | 1016.8 hPa | 0 mm | - | 92 W/m² | - |
| 1777386067 | 4.44° C | 60% | 1016.8 hPa | 0 mm | - | 84 W/m² | - |
| 1777385763 | 4.44° C | 59% | 1016.7 hPa | 0 mm | - | 78 W/m² | - |
| 1777385461 | 5° C | 59% | 1016.4 hPa | 0 mm | - | 70 W/m² | - |
| 1777385156 | 5° C | 61% | 1016.6 hPa | 0 mm | - | 61 W/m² | - |
| 1777384853 | 3.89° C | 65% | 1016.6 hPa | 0 mm | - | 50 W/m² | - |
* Rain latest hour (hover to see other rain measurements)
** Current wind speed in m/s (hover to see current wind gust speed)